TELKOM 2                
1 28902U 05046A   19261.37372358 -.00000142  00000-0  00000+0 0  9990
2 28902   0.0187 210.3318 0000791 247.0778 191.1214  1.00271510 50538
SPACEWAY 2              
1 28903U 05046B   19261.54817238 -.00000130  00000-0  00000+0 0  9998
2 28903   0.0168  44.8836 0000095 226.2401 184.3408  1.00272103 50798
ARIANE 5 R/B            
1 28904U 05046C   19261.00169755 -.00000081  00000-0  21071-3 0  9994
2 28904   7.4138  13.2047 7199049 190.9049 134.8633  2.29144396115696
ARIANE 5 DEB [SYLDA]    
1 28905U 05046D   19261.28443077  .00323248  34570-6  54186-2 0  9996
2 28905   7.0494   7.8307 5555433 186.8473 160.2277  4.83586827157977